"2010-04-19 00:00:00",37900,2.812,80.9,4.898,0.166,14.24,106.3089,15.42,16.42,25.92,0,110.7,13.26,16.23,42.9
"2010-04-19 00:00:30",37901,3.227,91.4,10.41,0.351,14.4,106.3106,15.43,16.44,25.87,0,110.7,13.26,16.23,53.4
"2010-04-19 00:01:00",37902,3.523,103.9,7.577,0.351,14.53,106.3067,15.42,16.43,26.01,0,110.7,13.26,16.22,65.9
"2010-04-19 00:01:30",37903,4.57,85.7,3.868,0.515,14.49,106.2878,15.37,16.42,25.76,0,110.7,13.26,16.18,47.7
"2010-04-19 00:02:00",37904,4.569,99.7,5.901,0.25,14.42,106.2817,15.35,16.39,25.6,0,110.7,13.26,16.16,61.7
"2010-04-19 00:02:30",37905,4.652,101.6,2.83,0.137,14.37,106.2817,15.35,16.36,25.62,0,110.7,13.26,16.16,63.6
"2010-04-19 00:03:00",37906,4.113,98.1,3.691,0.227,14.28,106.2817,15.35,16.37,25.58,0,110.7,13.26,16.16,60.1
"2010-04-19 00:03:30",37907,3.738,95.1,6.767,0.285,14.32,106.2817,15.35,16.36,25.69,0,110.7,13.27,16.16,57.1
"2010-04-19 00:04:00",37908,3.337,100.8,3.635,0.284,14.41,106.2817,15.35,16.35,25.7,0,110.7,13.27,16.16,62.8
"2010-04-19 00:04:30",37909,3.305,98.5,7.113,0.48,14.47,106.2817,15.35,16.36,25.72,0,110.7,13.27,16.16,60.5
"2010-04-19 00:05:00",37910,3.463,80,5.199,0.447,14.53,106.2817,15.35,16.36,25.77,0,110.7,13.27,16.16,42.0
"2010-04-19 00:05:30",37911,2.719,99,3.036,0.259,14.25,106.2817,15.35,16.35,25.67,0,110.7,13.27,16.16,61.0
"2010-04-19 00:06:00",37912,2.413,111.1,3.737,0.085,14.25,106.2817,15.35,16.34,25.65,0,110.7,13.27,16.16,73.1
"2010-04-19 00:06:30",37913,2.848,95.9,4.24,0.158,14.42,106.2814,15.35,16.35,25.65,0,110.7,13.27,16.16,57.9
"2010-04-19 00:07:00",37914,2.431,105.1,4.948,0.215,14.35,106.2811,15.35,16.35,25.78,0,110.7,13.27,16.16,67.1
"2010-04-19 00:07:30",37915,2.58,112.6,4.412,0.362,14.38,106.2772,15.34,16.34,25.89,0,110.7,13.27,16.15,74.6
"2010-04-19 00:08:00",37916,2.609,120.8,2.429,0.198,14.35,106.2777,15.34,16.35,25.94,0,110.7,13.27,16.15,82.8
"2010-04-19 00:08:30",37917,2.22,120.5,4.633,0.134,14.34,106.2696,15.32,16.34,25.98,0,110.7,13.27,16.13,82.5
"2010-04-19 00:09:00",37918,2.45,126.5,3.363,0.232,14.43,106.2648,15.31,16.34,25.96,0,110.7,13.27,16.12,88.5
"2010-04-19 00:09:30",37919,2.576,120.8,4.498,0.086,14.45,106.2583,15.29,16.33,25.95,0,110.7,13.27,16.10,82.8
"2010-04-19 00:10:00",37920,2.549,109.5,5.576,0.179,14.43,106.2507,15.28,16.34,25.96,0,110.7,13.27,16.08,71.5
"2010-04-19 00:10:30",37921,2.557,108.4,6.961,0.185,14.42,106.249,15.27,16.34,25.99,0,110.7,13.27,16.08,70.4
"2010-04-19 00:11:00",37922,2.84,110.2,3.057,0.259,14.43,106.2479,15.27,16.33,25.88,0,110.7,13.27,16.07,72.2
"2010-04-19 00:11:30",37923,3.124,83,6.83,0.338,14.47,106.2479,15.27,16.31,25.89,0,110.7,13.27,16.07,45.0
"2010-04-19 00:12:00",37924,3.267,91.5,3.815,0.182,14.37,106.2479,15.27,16.29,25.77,0,110.7,13.27,16.07,53.5
"2010-04-19 00:12:30",37925,2.376,99.7,9.19,0.249,14.3,106.2479,15.27,16.28,25.74,0,110.7,13.27,16.07,61.7
"2010-04-19 00:13:00",37926,1.976,105.4,4.95,0.184,14.28,106.2479,15.27,16.29,25.8,0,110.7,13.27,16.07,67.4
"2010-04-19 00:13:30",37927,1.64,97.8,5.443,0.188,14.23,106.2479,15.27,16.29,25.9,0,110.7,13.26,16.07,59.8
"2010-04-19 00:14:00",37928,2.103,112.3,5.018,0.24,14.13,106.2479,15.27,16.29,25.79,0,110.7,13.26,16.07,74.3
"2010-04-19 00:14:30",37929,2.061,108.7,6.377,0.247,14.03,106.2479,15.27,16.29,25.83,0,110.7,13.26,16.07,70.7
"2010-04-19 00:15:00",37930,2.81,117.2,5.807,0.335,14.02,106.2479,15.27,16.3,26.04,0,110.7,13.26,16.07,79.2
"2010-04-19 00:15:30",37931,2.572,109.4,7.463,0.329,14.08,106.2479,15.27,16.31,26.11,0,110.7,13.26,16.07,71.4
"2010-04-19 00:16:00",37932,2.789,104.3,5.387,0.274,14.1,106.2479,15.27,16.31,26.03,0,110.7,13.26,16.07,66.3
"2010-04-19 00:16:30",37933,2.795,113.7,6.825,0.319,14.14,106.2479,15.27,16.33,26.02,0,110.7,13.26,16.07,75.7
"2010-04-19 00:17:00",37934,2.936,118.2,6.846,0.167,14.18,106.2487,15.27,16.35,25.97,0,110.7,13.26,16.08,80.2
"2010-04-19 00:17:30",37935,3.738,101.2,5.12,0.292,14.37,106.2563,15.29,16.33,25.96,0,110.7,13.26,16.09,63.2
"2010-04-19 00:18:00",37936,3.198,108.1,4.418,0.251,14.35,106.2589,15.3,16.33,25.89,0,110.7,13.26,16.10,70.1
"2010-04-19 00:18:30",37937,2.787,107,4.481,0.275,14.26,106.2676,15.32,16.34,26,0,110.7,13.26,16.12,69.0
"2010-04-19 00:19:00",37938,2.549,114.4,8.64,0.221,14.28,106.2746,15.34,16.35,25.88,0,110.7,13.27,16.14,76.4
"2010-04-19 00:19:30",37939,2.462,118.7,7.003,0.2,14.24,106.2805,15.35,16.34,25.95,0,110.7,13.27,16.16,80.7
"2010-04-19 00:20:00",37940,2.424,107.6,5.354,0.191,14.19,106.2814,15.35,16.36,25.95,0,110.7,13.27,16.16,69.6
"2010-04-19 00:20:30",37941,2.383,112.9,6.36,0.162,14.13,106.2817,15.35,16.36,25.94,0,110.7,13.27,16.16,74.9
"2010-04-19 00:21:00",37942,2.828,104.1,4.897,0.154,14.18,106.2817,15.35,16.37,25.89,0,110.7,13.27,16.16,66.1
"2010-04-19 00:21:30",37943,3.307,112.5,3.538,0.209,14.12,106.2817,15.35,16.38,25.96,0,110.7,13.27,16.16,74.5
"2010-04-19 00:22:00",37944,3.374,112.5,3.929,0.165,14.23,106.2817,15.35,16.39,25.96,0,110.7,13.27,16.16,74.5
"2010-04-19 00:22:30",37945,2.853,124.8,8.35,0.17,14.24,106.2817,15.35,16.4,25.98,0,110.7,13.27,16.16,86.8
"2010-04-19 00:23:00",37946,2.919,123.4,6.449,0.176,14.3,106.2817,15.35,16.41,26.04,0,110.7,13.27,16.16,85.4
"2010-04-19 00:23:30",37947,3.149,109.8,5.385,0.185,14.35,106.2817,15.35,16.41,25.91,0,110.7,13.27,16.16,71.8
"2010-04-19 00:24:00",37948,2.869,92.8,4.938,0.159,14.47,106.2817,15.35,16.41,25.83,0,110.7,13.27,16.16,54.8
"2010-04-19 00:24:30",37949,2.894,107.3,3.868,0.267,14.42,106.2817,15.35,16.4,25.86,0,110.7,13.27,16.16,69.3
"2010-04-19 00:25:00",37950,3.218,107.2,2.991,0.166,14.42,106.2817,15.35,16.41,25.74,0,110.7,13.27,16.16,69.2
"2010-04-19 00:25:30",37951,3.592,112.6,3.685,0.204,14.52,106.2817,15.35,16.41,25.97,0,110.7,13.27,16.16,74.6
"2010-04-19 00:26:00",37952,2.918,113.4,5.622,0.275,14.47,106.2814,15.35,16.38,25.91,0,110.7,13.27,16.16,75.4
"2010-04-19 00:26:30",37953,2.698,129.3,6.425,0.186,14.43,106.2794,15.35,16.38,26.12,0,110.7,13.27,16.15,91.3
"2010-04-19 00:27:00",37954,2.906,130.9,2.973,0.138,14.4,106.2797,15.35,16.35,26.14,0,110.7,13.27,16.15,92.9
"2010-04-19 00:27:30",37955,2.989,129.9,3.718,0.124,14.4,106.2805,15.35,16.35,26.23,0,110.7,13.27,16.16,91.9
"2010-04-19 00:28:00",37956,2.908,115.9,4.937,0.238,14.36,106.2814,15.35,16.36,26.14,0,110.7,13.27,16.16,77.9
"2010-04-19 00:28:30",37957,2.22,118.1,2.904,0.161,14.3,106.2817,15.35,16.34,26.04,0,110.7,13.27,16.16,80.1
"2010-04-19 00:29:00",37958,2.213,123.9,2.909,0.12,14.24,106.2817,15.35,16.35,26.12,0,110.7,13.27,16.16,85.9
"2010-04-19 00:29:30",37959,2.261,122.9,5.318,0.194,14.25,106.2817,15.35,16.37,26.21,0,110.7,13.27,16.16,84.9
"2010-04-19 00:30:00",37960,2.117,120.9,4.028,0.179,14.27,106.2817,15.35,16.35,26.84,0,110.7,13.26,16.16,82.9
"2010-04-19 00:30:30",37961,1.922,125,4.781,0.098,14.32,106.2814,15.35,16.36,26.98,0,110.7,13.26,16.16,87.0
"2010-04-19 00:31:00",37962,1.509,125.7,7.773,0.402,14.31,106.2817,15.35,16.37,27.12,0,110.7,13.26,16.16,87.7
"2010-04-19 00:31:30",37963,1.569,105.3,6.612,0.401,14.35,106.2817,15.35,16.37,27.14,0,110.7,13.26,16.16,67.3
"2010-04-19 00:32:00",37964,2.159,110,5.45,0.182,14.35,106.2814,15.35,16.38,26.71,0,110.7,13.26,16.16,72.0
"2010-04-19 00:32:30",37965,2.07,122.1,9.11,0.194,14.4,106.2583,15.29,16.38,26.28,0,110.7,13.26,16.10,84.1
"2010-04-19 00:33:00",37966,2.168,134.2,2.089,0.248,14.33,106.2479,15.27,16.34,26.43,0,110.7,13.26,16.07,96.2
"2010-04-19 00:33:30",37967,2.357,124,5.88,0.613,14.41,106.2327,15.23,16.32,26.85,0,110.7,13.26,16.03,86.0
"2010-04-19 00:34:00",37968,2.923,136.4,3.722,0.117,14.32,106.2113,15.17,16.28,27.21,0,110.7,13.26,15.98,98.4
"2010-04-19 00:34:30",37969,3.015,142.5,2.299,0.128,14.33,106.1817,15.1,16.23,27.65,0,110.7,13.26,15.90,104.5
"2010-04-19 00:35:00",37970,3.092,140.5,3.397,0.157,14.36,106.1803,15.09,16.19,27.73,0,110.7,13.26,15.90,102.5
"2010-04-19 00:35:30",37971,3.02,134.6,1.715,0.088,14.41,106.1803,15.09,16.16,27.72,0,110.7,13.26,15.90,96.6
"2010-04-19 00:36:00",37972,2.914,141.4,3.589,0.166,14.42,106.1803,15.09,16.15,27.51,0,110.7,13.27,15.90,103.4
"2010-04-19 00:36:30",37973,2.65,144.6,2.594,0.095,14.45,106.1803,15.09,16.16,27.38,0,110.7,13.27,15.90,106.6
"2010-04-19 00:37:00",37974,3.029,139.2,2.917,0.148,14.41,106.1815,15.1,16.14,27.31,0,110.7,13.27,15.90,101.2
"2010-04-19 00:37:30",37975,2.978,137,2.256,0.148,14.48,106.1927,15.13,16.15,27.22,0,110.7,13.27,15.93,99.0
"2010-04-19 00:38:00",37976,3.173,146.2,1.941,0.125,14.54,106.2071,15.16,16.15,27.07,0,110.7,13.27,15.97,108.2
"2010-04-19 00:38:30",37977,2.933,143.1,2.483,0.112,14.53,106.2135,15.18,16.16,27.1,0,110.7,13.27,15.98,105.1
"2010-04-19 00:39:00",37978,3.417,137.3,2.133,0.142,14.56,106.2141,15.18,16.18,26.81,0,110.7,13.27,15.99,99.3
"2010-04-19 00:39:30",37979,3.274,137.1,1.466,0.18,14.6,106.2141,15.18,16.17,26.86,0,110.7,13.27,15.99,99.1
"2010-04-19 00:40:00",37980,3.046,132.1,4.104,0.121,14.62,106.2141,15.18,16.19,26.98,0,110.7,13.27,15.99,94.1
"2010-04-19 00:40:30",37981,3.002,130.9,2.061,0.198,14.57,106.2141,15.18,16.19,27.04,0,110.7,13.27,15.99,92.9
"2010-04-19 00:41:00",37982,3.179,130.8,1.613,0.207,14.58,106.2141,15.18,16.21,27.02,0,110.7,13.27,15.99,92.8
"2010-04-19 00:41:30",37983,2.406,129.7,2.565,0.117,14.58,106.2141,15.18,16.22,26.71,0,110.7,13.27,15.99,91.7
"2010-04-19 00:42:00",37984,2.482,128.4,2.684,0.106,14.63,106.2141,15.18,16.22,26.53,0,110.7,13.27,15.99,90.4
"2010-04-19 00:42:30",37985,2.216,129.6,3.053,0.169,14.6,106.2141,15.18,16.24,26.54,0,110.7,13.27,15.99,91.6
"2010-04-19 00:43:00",37986,1.773,123,3.388,0.086,14.6,106.2141,15.18,16.25,26.54,0,110.7,13.27,15.99,85.0
"2010-04-19 00:43:30",37987,1.583,135.9,3.766,0.087,14.45,106.2141,15.18,16.23,26.51,0,110.7,13.27,15.99,97.9
"2010-04-19 00:44:00",37988,1.398,130.8,4.625,0.277,14.54,106.2147,15.18,16.24,26.53,0,110.7,13.27,15.99,92.8
"2010-04-19 00:44:30",37989,2.025,132.8,1.787,0.13,14.58,106.2147,15.18,16.25,26.48,0,110.7,13.27,15.99,94.8
"2010-04-19 00:45:00",37990,1.936,133.5,4.271,0.081,14.61,106.2147,15.18,16.26,26.34,0,110.7,13.27,15.99,95.5
"2010-04-19 00:45:30",37991,1.824,135.8,2.929,0.087,14.45,106.2156,15.19,16.25,26.16,0,110.7,13.27,15.99,97.8
"2010-04-19 00:46:00",37992,1.84,142.5,1.341,0.074,14.61,106.2156,15.19,16.26,25.97,0,110.7,13.27,15.99,104.5
"2010-04-19 00:46:30",37993,1.794,152,4.274,0.13,14.53,106.2165,15.19,16.27,26.04,0,110.7,13.27,15.99,114.0
"2010-04-19 00:47:00",37994,1.76,152.4,2.261,0.093,14.61,106.2165,15.19,16.26,26.19,0,110.7,13.27,15.99,114.4
"2010-04-19 00:47:30",37995,1.37,158.8,5.078,0.272,14.69,106.2171,15.19,16.25,26.02,0,110.7,13.27,15.99,120.8
"2010-04-19 00:48:00",37996,0.755,146.8,9.19,0.167,14.63,106.2168,15.19,16.26,26.06,0,110.7,13.26,15.99,108.8
"2010-04-19 00:48:30",37997,0.978,135.2,11.64,0.244,14.57,106.2168,15.19,16.25,26.13,0,110.7,13.26,15.99,97.2
"2010-04-19 00:49:00",37998,1.339,137.3,5.243,0.205,14.64,106.2207,15.2,16.27,26.2,0,110.7,13.26,16.00,99.3
"2010-04-19 00:49:30",37999,1.91,142,6.991,0.162,14.74,106.2204,15.2,16.28,26.24,0,110.7,13.26,16.00,104.0
"2010-04-19 00:50:00",38000,2.295,149.1,4.044,0.236,14.76,106.2248,15.21,16.27,26.29,0,110.7,13.26,16.01,111.1
"2010-04-19 00:50:30",38001,2.367,154.3,2.746,0.075,14.91,106.225,15.21,16.26,26.37,0,110.7,13.26,16.01,116.3
"2010-04-19 00:51:00",38002,2.472,145,3.41,0.101,14.99,106.2329,15.23,16.29,26.21,0,110.7,13.26,16.03,107.0
"2010-04-19 00:51:30",38003,2.171,140.1,4.114,0.126,15.01,106.2362,15.24,16.29,26.14,0,110.7,13.26,16.04,102.1
"2010-04-19 00:52:00",38004,2.142,129.2,4.918,0.053,15,106.2316,15.23,16.28,26.07,0,110.7,13.27,16.03,91.2
"2010-04-19 00:52:30",38005,2.146,124.7,2.474,0.088,15.01,106.2344,15.23,16.27,26.05,0,110.7,13.27,16.04,86.7
"2010-04-19 00:53:00",38006,2.074,127.5,2.295,0.092,15.02,106.2353,15.24,16.29,26.1,0,110.7,13.27,16.04,89.5
"2010-04-19 00:53:30",38007,1.96,126.3,2.79,0.136,15.13,106.2374,15.24,16.28,26.14,0,110.7,13.27,16.05,88.3
"2010-04-19 00:54:00",38008,2.016,125.7,2.483,0.069,15.06,106.2398,15.25,16.28,26.19,0,110.7,13.27,16.05,87.7
"2010-04-19 00:54:30",38009,2.219,130.3,6.45,0.183,15.2,106.241,15.25,16.28,26.23,0,110.7,13.27,16.06,92.3
"2010-04-19 00:55:00",38010,2.181,124,4.022,0.137,15.12,106.2407,15.25,16.27,26.21,0,110.7,13.27,16.05,86.0
"2010-04-19 00:55:30",38011,1.919,117.3,3.09,0.094,15.13,106.2417,15.25,16.28,26.21,0,110.7,13.27,16.06,79.3
"2010-04-19 00:56:00",38012,2.056,125.1,4.198,0.121,15.17,106.2337,15.23,16.25,26.24,0,110.7,13.27,16.04,87.1
"2010-04-19 00:56:30",38013,2.377,126,2.405,0.147,15.21,106.2195,15.2,16.25,26.3,0,110.7,13.27,16.00,88.0
"2010-04-19 00:57:00",38014,2.544,126.5,2.048,0.154,15.24,106.2141,15.18,16.23,26.26,0,110.7,13.27,15.99,88.5
"2010-04-19 00:57:30",38015,2.578,136.6,4.572,0.113,15.28,106.2153,15.18,16.23,26.23,0,110.7,13.28,15.99,98.6
"2010-04-19 00:58:00",38016,2.691,138,3.416,0.131,15.2,106.2148,15.18,16.21,26.17,0,110.7,13.28,15.99,100.0
"2010-04-19 00:58:30",38017,2.896,148.5,2.133,0.183,15.24,106.1982,15.14,16.19,26.24,0,110.6,13.28,15.95,110.5
"2010-04-19 00:59:00",38018,3.219,143.6,3.621,0.115,15.26,106.183,15.1,16.18,26.35,0,110.7,13.28,15.91,105.6
"2010-04-19 00:59:30",38019,3.061,142,1.945,0.083,15.23,106.1824,15.1,16.16,26.36,0,110.6,13.28,15.90,104.0
"2010-04-19 01:00:00",38020,2.738,143,1.345,0.166,15.28,106.1824,15.1,16.15,26.36,0,110.7,13.28,15.90,105.0
"2010-04-19 01:00:30",38021,2.621,143.5,4.085,0.233,15.24,106.1796,15.09,16.14,26.45,0,110.6,13.28,15.90,105.5
"2010-04-19 01:01:00",38022,2.539,147.9,3.012,0.121,15.22,106.1624,15.05,16.12,26.49,0,110.6,13.28,15.85,109.9
"2010-04-19 01:01:30",38023,2.567,142.4,2.273,0.091,15.31,106.1492,15.02,16.1,26.38,0,110.6,13.28,15.82,104.4
"2010-04-19 01:02:00",38024,2.422,146.4,3.192,0.076,15.25,106.1487,15.01,16.09,26.37,0,110.6,13.28,15.82,108.4
"2010-04-19 01:02:30",38025,2.416,145.1,1.662,0.101,15.26,106.1487,15.01,16.08,26.37,0,110.6,13.28,15.82,107.1
"2010-04-19 01:03:00",38026,2.816,138.5,2.169,0.193,15.24,106.134,14.98,16.05,26.43,0,110.6,13.28,15.78,100.5
"2010-04-19 01:03:30",38027,2.641,141.4,4.58,0.089,15.27,106.1182,14.94,16.05,26.62,0,110.6,13.28,15.74,103.4
"2010-04-19 01:04:00",38028,2.614,139.1,2.701,0.136,15.29,106.1149,14.93,16.03,26.73,0,110.6,13.28,15.73,101.1
"2010-04-19 01:04:30",38029,2.523,145.3,1.415,0.15,15.31,106.1149,14.93,16.02,26.83,0,110.6,13.28,15.73,107.3
"2010-04-19 01:05:00",38030,2.614,142.1,1.002,0.102,15.4,106.1118,14.92,16,27.03,0,110.6,13.28,15.72,104.1
"2010-04-19 01:05:30",38031,2.571,142.6,2.247,0.078,15.39,106.0915,14.87,15.99,27.09,0,110.6,13.28,15.67,104.6
"2010-04-19 01:06:00",38032,2.408,137.3,1.876,0.077,15.36,106.0811,14.84,15.98,27.09,0,110.6,13.28,15.64,99.3
"2010-04-19 01:06:30",38033,2.289,137.2,2.616,0.074,15.41,106.0811,14.84,15.98,27.17,0,110.6,13.28,15.64,99.2
"2010-04-19 01:07:00",38034,2.689,138,1.535,0.195,15.37,106.0808,14.84,15.94,27.36,0,110.6,13.28,15.64,100.0
"2010-04-19 01:07:30",38035,2.658,139.2,3.071,0.083,15.42,106.0687,14.81,15.93,27.7,0,110.6,13.28,15.61,101.2
"2010-04-19 01:08:00",38036,2.775,133.4,1.415,0.081,15.42,106.0499,14.76,15.91,27.9,0,110.6,13.28,15.56,95.4
"2010-04-19 01:08:30",38037,2.748,131,2.043,0.093,15.44,106.0545,14.77,15.89,27.95,0,110.6,13.28,15.58,93.0
"2010-04-19 01:09:00",38038,2.449,130.9,2.604,0.116,15.38,106.0538,14.77,15.88,28,0,110.6,13.28,15.57,92.9
"2010-04-19 01:09:30",38039,2.551,134.7,3.474,0.127,15.33,106.0368,14.73,15.85,28.09,0,110.6,13.29,15.53,96.7
"2010-04-19 01:10:00",38040,2.981,139.2,3.285,0.114,15.39,106.038,14.73,15.84,28.17,0,110.6,13.29,15.53,101.2
"2010-04-19 01:10:30",38041,2.964,143.2,1.48,0.166,15.42,106.0395,14.73,15.81,27.78,0,110.6,13.29,15.54,105.2
"2010-04-19 01:11:00",38042,2.746,148.2,3.423,0.072,15.41,106.0317,14.71,15.79,27.59,0,110.6,13.29,15.52,110.2
"2010-04-19 01:11:30",38043,2.715,143.7,2.609,0.06,15.43,106.0107,14.66,15.77,27.31,0,110.6,13.29,15.46,105.7
"2010-04-19 01:12:00",38044,2.643,143.7,0.9,0.109,15.48,106.0111,14.66,15.75,27.18,0,110.6,13.29,15.46,105.7
"2010-04-19 01:12:30",38045,2.655,141.2,2.187,0.102,15.43,106.0141,14.67,15.73,27.42,0,110.6,13.3,15.47,103.2
"2010-04-19 01:13:00",38046,2.669,139.3,2.39,0.1,15.36,105.9944,14.62,15.72,27.82,0,110.6,13.3,15.42,101.3
"2010-04-19 01:13:30",38047,2.362,140.8,3.329,0.089,15.35,105.982,14.59,15.7,28.15,0,110.6,13.3,15.39,102.8
"2010-04-19 01:14:00",38048,2.584,144,0.849,0.051,15.41,105.9817,14.59,15.68,28.19,0,110.6,13.3,15.39,106.0
"2010-04-19 01:14:30",38049,2.513,142.6,2.117,0.044,15.38,105.9817,14.59,15.66,28.3,0,110.6,13.3,15.39,104.6
"2010-04-19 01:15:00",38050,2.479,142.5,2.666,0.065,15.38,105.9747,14.57,15.63,28.03,0,110.6,13.3,15.37,104.5
"2010-04-19 01:15:30",38051,2.459,144.8,2.302,0.066,15.36,105.9525,14.51,15.62,27.77,0,110.6,13.3,15.31,106.8
"2010-04-19 01:16:00",38052,2.37,145.9,1.562,0.052,15.3,105.948,14.5,15.62,27.63,0,110.6,13.3,15.30,107.9
"2010-04-19 01:16:30",38053,2.208,145.4,1.494,0.047,15.3,105.948,14.5,15.59,27.81,0,110.6,13.3,15.30,107.4
"2010-04-19 01:17:00",38054,2.128,140.3,4.813,0.069,15.34,105.948,14.5,15.59,27.89,0,110.5,13.3,15.30,102.3
"2010-04-19 01:17:30",38055,2.093,136.1,2.451,0.069,15.42,105.9418,14.48,15.55,27.9,0,110.5,13.3,15.29,98.1
"2010-04-19 01:18:00",38056,2.015,134.7,6.657,0.134,15.39,105.9319,14.46,15.55,27.93,0,110.5,13.3,15.26,96.7
"2010-04-19 01:18:30",38057,2.05,143.6,4.865,0.076,15.33,105.915,14.42,15.53,28.04,0,110.5,13.3,15.22,105.6
"2010-04-19 01:19:00",38058,2.113,133.6,2.426,0.069,15.43,105.9142,14.41,15.54,28.07,0,110.5,13.3,15.22,95.6
"2010-04-19 01:19:30",38059,2.132,136.3,1.388,0.059,15.43,105.9142,14.41,15.51,28.07,0,110.5,13.3,15.22,98.3
"2010-04-19 01:20:00",38060,2.082,136,1.339,0.074,15.47,105.9142,14.41,15.51,28.09,0,110.5,13.3,15.22,98.0
"2010-04-19 01:20:30",38061,2.131,135.9,3.348,0.07,15.4,105.9142,14.41,15.49,28.12,0,110.5,13.3,15.22,97.9
"2010-04-19 01:21:00",38062,2.069,131.5,0.754,0.046,15.44,105.9116,14.41,15.48,28.15,0,110.5,13.3,15.21,93.5
"2010-04-19 01:21:30",38063,2.073,131.9,1.244,0.043,15.47,105.8976,14.37,15.47,28.17,0,110.5,13.3,15.17,93.9
"2010-04-19 01:22:00",38064,2.007,129.7,1.424,0.056,15.39,105.8963,14.37,15.48,28.21,0,110.5,13.3,15.17,91.7
"2010-04-19 01:22:30",38065,1.875,130.3,1.125,0.038,15.37,105.8883,14.35,15.47,28.26,0,110.5,13.3,15.15,92.3
"2010-04-19 01:23:00",38066,1.821,131.1,0.944,0.049,15.37,105.8914,14.35,15.45,28.27,0,110.5,13.3,15.16,93.1
"2010-04-19 01:23:30",38067,2.015,131.6,2.039,0.123,15.46,105.8988,14.37,15.44,28.27,0,110.5,13.3,15.18,93.6
"2010-04-19 01:24:00",38068,2.074,135.6,1.924,0.033,15.45,105.9009,14.38,15.44,28.26,0,110.5,13.3,15.18,97.6
"2010-04-19 01:24:30",38069,1.915,135.8,1.812,0.061,15.36,105.9057,14.39,15.44,28.3,0,110.5,13.3,15.19,97.8
"2010-04-19 01:25:00",38070,1.898,139.5,3.371,0.046,15.45,105.9078,14.4,15.43,28.28,0,110.5,13.3,15.20,101.5
"2010-04-19 01:25:30",38071,1.93,143.6,1.03,0.047,15.49,105.9082,14.4,15.42,28.24,0,110.5,13.3,15.20,105.6
"2010-04-19 01:26:00",38072,1.883,143.3,1.283,0.037,15.46,105.8975,14.37,15.4,28.2,0,110.5,13.3,15.17,105.3
"2010-04-19 01:26:30",38073,1.926,143.6,1.358,0.041,15.53,105.8898,14.35,15.4,28.16,0,110.5,13.31,15.15,105.6
"2010-04-19 01:27:00",38074,1.882,142.6,1.98,0.041,15.44,105.8851,14.34,15.4,28.23,0,110.5,13.31,15.14,104.6
"2010-04-19 01:27:30",38075,1.837,142.8,1.098,0.035,15.46,105.8821,14.33,15.39,28.31,0,110.5,13.31,15.13,104.8
"2010-04-19 01:28:00",38076,1.852,143.3,0.941,0.021,15.49,105.8823,14.33,15.38,28.36,0,110.5,13.31,15.13,105.3
"2010-04-19 01:28:30",38077,1.896,140.1,1.351,0.049,15.43,105.8823,14.33,15.37,28.32,0,110.5,13.31,15.13,102.1
"2010-04-19 01:29:00",38078,3.089,147.6,7.49,1.358,17.8,105.8823,14.33,15.56,28.51,0,110.5,13.28,15.13,109.6
"2010-04-19 01:29:30",38079,4.307,149.3,5.397,0.894,19.84,105.8818,14.33,15.59,28.61,0,110.5,13.28,15.13,111.3
"2010-04-19 01:30:00",38080,2.843,143.4,5.912,1.341,16.77,105.8759,14.31,15.54,28.65,0,110.5,13.28,15.12,105.4
"2010-04-19 01:30:30",38081,1.878,139,1.812,0.069,13.98,105.8697,14.3,15.42,28.58,0,110.5,13.31,15.10,101.0
"2010-04-19 01:31:00",38082,1.935,137.5,1.029,0.078,13.39,105.8519,14.25,15.33,28.62,0,110.5,13.31,15.06,99.5
"2010-04-19 01:31:30",38083,2.098,136.4,0.891,0.047,13.28,105.8485,14.24,15.32,28.61,0,110.5,13.31,15.05,98.4
"2010-04-19 01:32:00",38084,2.206,136.7,0.557,0.069,13.57,105.8485,14.24,15.31,28.87,0,110.5,13.31,15.05,98.7
"2010-04-19 01:32:30",38085,2.204,135,1.094,0.089,13.85,105.8483,14.24,15.31,28.9,0,110.5,13.31,15.05,97.0
"2010-04-19 01:33:00",38086,3.289,141.4,6.929,1.277,16.42,105.8384,14.22,15.48,29.02,0,110.5,13.28,15.02,103.4
"2010-04-19 01:33:30",38087,1.966,137.5,1.817,0.065,13.78,105.8176,14.17,15.27,28.73,0,110.5,13.31,14.97,99.5
"2010-04-19 01:34:00",38088,1.766,134.7,2.727,0.084,13.74,105.8147,14.16,15.28,28.87,0,110.5,13.31,14.96,96.7
"2010-04-19 01:34:30",38089,1.841,134.3,1.313,0.066,13.91,105.815,14.16,15.25,28.73,0,110.5,13.32,14.96,96.3
"2010-04-19 01:35:00",38090,1.88,131.9,3.921,0.048,14.13,105.8147,14.16,15.24,28.79,0,110.5,13.32,14.96,93.9
"2010-04-19 01:35:30",38091,1.866,122.4,2.862,0.062,14.27,105.8015,14.12,15.23,28.7,0,110.5,13.32,14.93,84.4
"2010-04-19 01:36:00",38092,1.762,127.5,5.935,0.107,14.57,105.7818,14.07,15.21,28.73,0,110.5,13.32,14.88,89.5
"2010-04-19 01:36:30",38093,1.959,129.6,1.268,0.061,14.85,105.7809,14.07,15.2,28.79,0,110.5,13.32,14.87,91.6
"2010-04-19 01:37:00",38094,1.962,131.2,2.123,0.048,15,105.7824,14.08,15.18,28.89,0,110.5,13.32,14.88,93.2
"2010-04-19 01:37:30",38095,1.894,131.4,2.808,0.05,15.11,105.7833,14.08,15.16,28.91,0,110.5,13.32,14.88,93.4
"2010-04-19 01:38:00",38096,2.069,133.5,0.908,0.07,15.28,105.7744,14.06,15.16,28.91,0,110.5,13.32,14.86,95.5
"2010-04-19 01:38:30",38097,1.955,135.5,0.879,0.098,15.27,105.7612,14.02,15.15,28.93,0,110.5,13.32,14.82,97.5
"2010-04-19 01:39:00",38098,1.992,134.8,1.65,0.054,15.32,105.7635,14.03,15.14,29.19,0,110.5,13.32,14.83,96.8
"2010-04-19 01:39:30",38099,1.976,134,2.413,0.029,15.83,105.7683,14.04,15.17,29.44,0,110.5,13.32,14.84,96.0
"2010-04-19 01:40:00",38100,4.08,145.2,6.059,1.197,19.16,105.7692,14.04,15.39,29.7,0,110.5,13.28,14.84,107.2
"2010-04-19 01:40:30",38101,3.011,142.5,6.895,1.338,16.6,105.7709,14.05,15.2,29.58,0,110.5,13.28,14.85,104.5
"2010-04-19 01:41:00",38102,3.639,151.7,9.99,1.376,16.85,105.7519,14,15.26,29.61,0,110.5,13.28,14.80,113.7
"2010-04-19 01:41:30",38103,2.663,147.7,0.674,0.034,13.71,105.7449,13.98,15.07,29.33,0,110.5,13.32,14.78,109.7
"2010-04-19 01:42:00",38104,2.564,149.3,0.6,0.069,13.51,105.747,13.98,15.05,29.35,0,110.5,13.32,14.79,111.3
"2010-04-19 01:42:30",38105,2.496,148.6,1.927,0.052,13.41,105.7488,13.99,15.04,29.38,0,110.5,13.32,14.79,110.6
"2010-04-19 01:43:00",38106,2.533,147.8,2.062,0.032,13.66,105.7443,13.98,15.02,29.42,0,110.5,13.32,14.78,109.8
"2010-04-19 01:43:30",38107,4.042,150.7,6.071,1.519,16.42,105.7215,13.92,15.12,29.54,0,110.5,13.29,14.72,112.7
"2010-04-19 01:44:00",38108,3.232,144.3,4.532,0.619,14.97,105.7152,13.9,15.14,29.82,0,110.5,13.29,14.70,106.3
"2010-04-19 01:44:30",38109,3.13,140.7,1.1,0.087,13.93,105.7152,13.9,14.98,29.75,0,110.5,13.33,14.70,102.7
"2010-04-19 01:45:00",38110,3.079,139,1.027,0.058,14.18,105.7152,13.9,14.97,29.78,0,110.5,13.33,14.70,101.0
"2010-04-19 01:45:30",38111,2.784,139.6,1.707,0.127,14.15,105.7099,13.89,14.95,29.8,0,110.5,13.33,14.69,101.6
"2010-04-19 01:46:00",38112,2.783,143.1,2.25,0.069,14.61,105.6919,13.84,14.93,29.86,0,110.5,13.33,14.64,105.1
"2010-04-19 01:46:30",38113,2.755,143.6,2.373,0.095,14.76,105.6826,13.82,14.92,29.82,0,110.5,13.33,14.62,105.6
"2010-04-19 01:47:00",38114,2.911,144,0.764,0.053,14.92,105.6814,13.82,14.91,29.88,0,110.5,13.33,14.62,106.0
"2010-04-19 01:47:30",38115,2.843,146.2,0.491,0.054,15.22,105.6814,13.82,14.9,29.95,0,110.5,13.33,14.62,108.2
"2010-04-19 01:48:00",38116,3.863,151.3,6.094,1.32,17.33,105.6814,13.82,15.02,30.09,0,110.5,13.3,14.62,113.3
"2010-04-19 01:48:30",38117,3.336,146.8,5.542,1.083,16.39,105.6814,13.82,15.04,30.16,0,110.5,13.3,14.62,108.8
"2010-04-19 01:49:00",38118,4.13,150.9,6.837,1.406,17.53,105.6735,13.8,14.98,30.14,0,110.5,13.29,14.60,112.9